Wind_Speed
11 9 5 9 9 14 11 7 8 7 8 7 7 7 6 6 6 6 7 9 10 10 11 11 12 12 11 10 7 4 2 1 2 2 2 2 3 2 3 6 5 4 4
12 12 21 10 6 9 8 8 7 6 6 6 5 5 5 6 6 7 8 9 10 10 10 10 10 10 10 10 9 7 3 1 1 1 1 1 2 2 3 4 5 3 2
10 18 19 13 8 8 6 6 6 6 5 5 3 5 5 5 5 5 6 8 8 9 8 9 9 8 9 9 9 8 6 2 3 3 4 5 3 4 4 5 5 5 3
16 7 9 9 7 7 6 5 5 4 2 1 3 4 5 6 7 8 10 11 12 12 11 10 9 8 7 7 7 7 7 6 3 5 7 8 9 7 8 7 7 7 5
10 6 7 7 6 6 3 3 1 1 3 4 5 7 8 8 9 10 11 12 12 13 13 12 11 10 10 9 8 8 7 6 6 5 7 10 12 10 10 10 9 9 6
10 8 7 6 6 4 3 2 3 5 7 7 9 10 10 11 10 10 9 9 9 10 11 12 12 11 10 10 10 9 9 8 6 7 7 9 13 15 15 12 12 12 12
11 10 8 7 7 5 5 5 6 7 8 9 9 9 9 9 9 9 9 9 9 9 9 10 11 12 13 12 10 9 9 10 11 10 9 9 11 15 18 18 16 15 14
13 11 10 9 8 7 7 7 8 8 8 7 8 8 8 8 9 9 10 10 11 11 11 12 12 13 13 13 14 13 11 11 11 11 12 13 11 13 17 20 21 21 19
14 13 12 11 10 9 9 9 8 8 8 8 8 9 10 10 11 12 13 14 14 14 15 15 16 16 16 15 15 16 16 15 15 15 15 17 14 15 16 18 21 23 22
16 14 14 13 12 11 11 10 10 10 10 11 11 11 13 13 14 15 16 17 17 17 18 18 19 21 21 21 20 19 19 19 19 19 19 19 18 19 18 18 20 23 25
16 16 16 15 13 13 14 13 13 13 13 14 15 15 16 17 18 19 20 21 22 22 22 23 23 23 24 25 25 25 25 24 23 24 24 22 22 22 23 23 21 23 26
16 16 17 15 15 16 16 16 16 15 16 17 18 19 20 21 22 23 23 24 25 26 26 26 26 27 27 28 28 29 30 30 29 29 28 25 26 26 27 27 26 26 26
15 15 16 18 18 20 19 18 18 18 19 20 20 22 23 23 24 24 24 25 26 26 27 27 27 28 28 29 29 30 31 32 34 34 34 32 30 30 29 30 30 30 30
17 17 18 19 20 20 20 19 19 20 21 22 23 23 23 24 25 26 26 26 26 27 28 29 29 30 31 32 33 32 33 33 34 35 37 37 36 36 34 34 33 34 34
19 20 20 20 21 22 21 21 22 22 23 23 24 25 25 26 26 27 27 27 27 28 28 29 31 31 33 34 35 36 36 36 38 39 39 39 38 40 40 40 38 37 37
22 22 22 22 22 22 22 23 24 24 25 25 26 26 26 26 26 26 27 28 29 31 32 34 35 36 36 37 37 38 39 40 40 41 43 43 43 42 43 45 44 43 41
24 24 24 23 24 24 24 25 26 26 26 26 26 25 26 27 27 27 29 30 32 34 36 38 40 41 41 42 43 43 44 44 44 44 44 46 46 46 46 47 48 49 48
26 25 25 25 25 25 26 26 26 26 25 24 25 26 26 26 28 30 33 35 37 39 41 42 42 42 43 45 46 46 48 49 49 49 50 50 50 49 49 49 51 53 53
28 27 27 27 27 27 27 26 25 24 23 24 25 26 27 28 31 34 37 39 41 43 44 44 43 45 44 45 47 47 47 48 49 49 52 54 54 55 55 56 57 54 51
29 29 28 28 28 27 27 26 25 23 24 24 25 26 29 32 34 38 41 43 42 42 43 44 44 43 45 46 46 47 45 46 48 51 53 53 54 54 57 58 57 56 58
30 30 29 29 28 28 27 25 24 24 23 24 26 29 32 37 40 42 42 42 43 43 43 44 46 46 44 47 50 50 48 49 47 52 49 53 55 55 57 59 57 57 60
33 32 31 30 28 27 26 24 24 24 24 25 28 33 38 41 41 41 41 41 43 43 43 45 46 47 48 48 52 55 57 52 54 54 52 53 53 57 59 60 57 59 60
35 34 32 30 28 27 25 25 24 23 24 26 31 37 40 41 41 41 42 43 44 46 46 46 48 50 52 52 53 56 61 62 62 57 57 56 57 56 57 59 59 58 60
37 35 32 30 28 27 26 25 24 24 26 31 36 40 40 40 41 42 43 45 46 47 48 49 51 53 54 56 57 56 56 59 63 72 64 59 57 58 58 59 60 59 60
38 34 32 30 29 27 25 25 24 26 30 36 39 40 39 40 42 44 45 46 47 48 49 52 53 54 55 57 57 58 58 58 57 59 69 65 62 58 58 57 58 60 58
37 34 32 30 28 27 26 26 26 29 35 40 41 40 40 41 42 43 45 45 46 49 51 53 54 55 55 56 56 56 56 56 56 56 59 59 58 57 55 54 53 54 56
Wind_Direction
119 103 82 77 94 90 88 91 77 74 76 66 56 52 49 42 38 30 22 21 24 24 24 24 24 25 28 28 26 22 20 84 122 105 123 116 125 107 129 125 119 110 103
130 124 118 120 113 109 105 94 93 79 72 65 58 51 35 24 23 24 20 13 10 9 13 16 17 18 22 26 27 29 24 276 301 258 201 247 202 186 176 163 147 156 134
170 151 104 122 115 106 84 83 98 107 101 83 50 20 10 8 9 359 355 349 345 343 347 351 356 5 9 15 19 19 20 340 265 260 246 254 281 252 236 208 202 197 200
176 145 122 125 121 116 117 112 115 117 113 5 332 328 331 331 336 336 333 330 330 331 333 333 331 332 344 353 2 12 12 5 320 266 250 250 260 261 259 253 245 217 217
188 155 129 132 133 136 141 142 159 271 298 302 311 312 310 312 315 320 323 326 330 333 334 335 335 340 331 326 337 348 352 357 345 307 261 251 251 251 251 258 246 242 207
182 170 161 160 159 177 204 233 271 276 278 283 288 292 300 305 311 318 323 324 327 328 328 329 330 331 323 333 329 322 327 329 328 324 307 271 253 248 249 255 253 246 240
194 188 185 187 193 210 232 252 265 271 273 279 286 294 298 306 312 314 316 323 327 327 326 326 324 322 321 320 317 313 306 304 309 309 308 299 284 265 256 250 252 251 251
206 203 207 209 214 229 252 269 277 276 276 280 285 291 296 302 305 308 314 319 322 323 323 323 323 321 320 318 317 314 304 295 286 279 284 285 287 276 265 261 256 252 254
211 216 218 225 233 242 259 273 276 276 280 283 288 293 294 297 302 305 306 309 310 312 313 314 313 312 311 310 311 310 306 298 289 285 275 268 272 275 275 265 260 260 258
216 219 226 233 243 255 267 270 274 278 281 281 283 287 289 291 293 294 295 295 296 297 298 299 301 303 303 304 304 302 299 299 296 288 280 276 271 271 267 269 265 255 256
222 228 231 241 253 261 266 266 268 274 279 280 286 288 289 289 291 292 292 293 294 294 293 293 292 292 293 293 294 294 294 293 290 289 288 288 281 273 269 266 261 261 254
235 233 239 252 263 268 268 271 273 277 280 285 287 290 293 292 289 289 292 293 293 292 291 289 288 286 285 285 285 286 286 286 287 287 285 284 282 279 276 270 265 261 256
240 249 258 258 260 259 261 266 272 277 281 282 285 285 285 287 291 292 292 292 293 293 293 293 293 292 291 289 286 284 281 281 281 281 282 282 280 277 275 273 270 263 261
247 254 256 257 256 261 265 270 274 276 278 282 283 286 290 292 293 294 293 293 293 293 294 294 293 293 292 291 289 285 283 282 280 277 275 275 275 276 274 272 270 267 261
249 252 257 259 261 264 271 275 277 281 284 287 290 292 293 294 294 294 295 296 297 297 296 294 293 293 292 291 291 289 288 285 282 281 277 273 270 270 271 271 269 267 264
250 254 257 262 268 272 276 280 283 286 287 287 289 291 291 291 291 292 295 298 300 301 302 301 299 296 293 290 288 287 286 284 282 281 280 276 273 269 267 265 265 264 262
252 255 260 264 268 273 277 278 279 281 285 289 291 291 292 293 294 295 297 299 301 302 301 299 296 294 292 290 288 285 283 282 280 278 276 275 272 269 265 264 264 261 260
253 257 260 264 266 268 269 271 275 280 283 285 289 291 293 292 293 297 300 301 299 298 297 296 295 295 294 291 289 286 284 283 281 279 276 275 275 272 269 265 260 259 258
256 257 258 260 262 264 268 273 276 278 281 287 291 293 294 295 297 298 297 298 299 300 299 299 298 296 293 290 288 287 285 284 282 281 278 275 274 274 271 268 266 264 261
254 256 258 260 263 268 272 273 276 278 284 287 290 293 295 297 298 298 299 300 300 301 301 300 298 297 297 295 292 289 286 281 279 278 277 277 277 276 272 270 266 263 261
255 256 258 260 263 267 269 271 272 277 281 286 292 297 300 301 302 302 304 304 305 305 304 303 302 301 298 297 295 291 290 287 285 279 280 277 277 276 274 270 269 265 260
252 254 256 260 263 266 267 268 272 275 281 289 297 302 304 304 305 305 304 304 305 305 304 304 303 301 300 300 299 297 296 290 286 286 282 280 277 273 273 274 271 266 263
252 254 257 261 264 266 264 266 270 275 283 293 301 305 304 303 302 304 306 307 308 308 307 306 304 304 304 304 303 303 302 299 295 288 284 282 278 275 272 270 269 267 264
252 255 258 261 263 261 261 264 268 274 287 298 303 304 302 301 305 307 309 310 309 309 308 307 306 305 305 304 302 300 298 297 296 292 290 287 282 279 275 271 268 267 266
253 254 257 259 258 257 260 263 268 280 293 300 302 300 301 305 308 310 310 309 309 308 308 307 306 305 304 302 301 300 299 297 296 295 289 290 290 289 286 282 277 271 266
250 253 255 255 255 255 258 262 271 286 296 300 301 302 304 306 308 308 307 307 308 308 308 306 305 304 303 302 301 300 298 297 297 295 294 292 291 290 289 285 282 281 278
Height
3151 3153 3153 3152 3152 3149 3153 3155 3155 3156 3157 3158 3158 3158 3157 3156 3156 3155 3155 3155 3154 3154 3153 3152 3151 3150 3149 3148 3148 3148 3148 3149 3149 3150 3150 3150 3150 3151 3151 3151 3152 3152 3152
3152 3155 3148 3153 3152 3151 3152 3153 3156 3157 3158 3159 3159 3159 3158 3157 3157 3156 3156 3155 3155 3154 3153 3153 3152 3151 3151 3150 3149 3148 3148 3149 3150 3150 3151 3151 3150 3151 3152 3152 3151 3152 3153
3152 3153 3144 3152 3154 3155 3157 3157 3157 3158 3158 3159 3159 3158 3158 3158 3157 3157 3156 3155 3155 3154 3153 3153 3152 3151 3150 3150 3150 3150 3149 3149 3149 3150 3150 3151 3152 3152 3152 3152 3152 3152 3153
3152 3151 3153 3154 3155 3155 3156 3157 3158 3159 3159 3159 3159 3159 3158 3158 3157 3157 3156 3155 3154 3154 3153 3153 3152 3151 3151 3150 3150 3150 3150 3149 3149 3149 3150 3150 3151 3152 3152 3153 3153 3152 3153
3152 3152 3153 3154 3155 3156 3157 3158 3158 3158 3159 3159 3159 3158 3158 3157 3157 3156 3155 3154 3153 3152 3152 3151 3151 3151 3151 3151 3150 3150 3150 3150 3149 3149 3149 3149 3149 3151 3151 3152 3152 3153 3153
3153 3153 3153 3154 3155 3156 3157 3157 3157 3157 3158 3158 3157 3157 3156 3156 3155 3155 3154 3154 3153 3152 3151 3151 3150 3149 3149 3149 3149 3149 3149 3149 3149 3149 3149 3149 3148 3148 3149 3149 3150 3152 3153
3153 3154 3154 3155 3155 3156 3157 3157 3157 3157 3157 3157 3156 3155 3154 3154 3153 3153 3153 3153 3152 3151 3151 3150 3149 3149 3148 3148 3148 3148 3148 3148 3147 3148 3147 3147 3147 3147 3147 3147 3148 3149 3150
3151 3152 3153 3154 3155 3156 3156 3156 3156 3156 3155 3154 3154 3153 3153 3152 3152 3152 3152 3151 3151 3150 3149 3149 3148 3148 3147 3146 3146 3146 3146 3145 3145 3144 3144 3144 3145 3145 3145 3146 3146 3146 3146
3150 3151 3152 3152 3153 3153 3154 3154 3154 3154 3153 3152 3152 3151 3151 3150 3150 3150 3149 3149 3149 3148 3148 3147 3146 3146 3145 3145 3145 3144 3144 3143 3142 3142 3142 3140 3141 3141 3141 3142 3143 3144 3144
3148 3150 3150 3151 3152 3152 3152 3152 3151 3151 3151 3151 3150 3150 3149 3148 3148 3147 3147 3147 3146 3146 3145 3144 3143 3143 3142 3141 3141 3142 3142 3141 3140 3139 3138 3138 3138 3138 3138 3138 3138 3139 3141
3147 3148 3149 3150 3150 3150 3150 3151 3150 3149 3149 3149 3148 3147 3146 3146 3146 3145 3145 3144 3143 3142 3142 3141 3140 3140 3139 3138 3138 3137 3137 3137 3137 3136 3135 3135 3135 3134 3134 3134 3134 3135 3135
3145 3146 3147 3147 3147 3147 3147 3147 3146 3146 3146 3145 3144 3144 3144 3143 3143 3142 3141 3140 3140 3139 3138 3137 3137 3136 3135 3134 3134 3133 3132 3131 3131 3131 3130 3132 3131 3131 3130 3130 3130 3130 3130
3142 3142 3143 3144 3144 3145 3145 3145 3144 3144 3143 3143 3143 3143 3141 3140 3138 3137 3137 3136 3135 3134 3133 3132 3131 3130 3129 3128 3128 3127 3127 3126 3125 3125 3124 3125 3126 3125 3125 3125 3125 3125 3126
3139 3139 3139 3140 3141 3141 3141 3141 3141 3141 3140 3139 3138 3137 3136 3135 3134 3133 3132 3131 3130 3129 3127 3126 3124 3123 3122 3121 3120 3119 3118 3118 3118 3117 3118 3117 3118 3118 3118 3118 3119 3119 3119
3135 3136 3136 3136 3136 3137 3137 3136 3136 3136 3135 3134 3133 3132 3131 3131 3129 3128 3127 3125 3124 3123 3122 3120 3118 3117 3115 3114 3113 3112 3111 3110 3110 3109 3109 3109 3109 3108 3108 3108 3109 3111 3112
3131 3132 3132 3132 3132 3131 3131 3131 3131 3130 3129 3129 3129 3128 3127 3125 3124 3123 3122 3121 3120 3118 3116 3114 3112 3111 3108 3106 3105 3103 3101 3100 3100 3099 3098 3099 3100 3101 3099 3098 3098 3099 3101
3128 3128 3128 3128 3127 3127 3126 3126 3126 3125 3125 3125 3124 3123 3122 3121 3120 3119 3118 3116 3113 3111 3109 3108 3106 3104 3102 3099 3097 3095 3093 3091 3090 3089 3087 3086 3087 3088 3087 3089 3089 3087 3087
3123 3124 3123 3123 3123 3123 3123 3122 3122 3122 3121 3120 3119 3118 3118 3117 3115 3113 3110 3109 3107 3104 3101 3099 3096 3095 3092 3090 3088 3087 3085 3083 3082 3079 3077 3074 3074 3075 3076 3075 3074 3074 3075
3118 3118 3118 3118 3118 3118 3118 3118 3117 3116 3116 3115 3115 3113 3112 3110 3108 3106 3104 3102 3099 3096 3093 3089 3086 3083 3081 3078 3075 3074 3073 3072 3069 3069 3065 3063 3063 3060 3060 3061 3062 3064 3066
3111 3112 3112 3112 3113 3113 3112 3112 3112 3112 3111 3110 3108 3107 3105 3104 3102 3100 3097 3094 3092 3089 3085 3082 3078 3076 3071 3068 3066 3063 3063 3060 3059 3055 3052 3052 3050 3049 3044 3043 3045 3049 3048
3105 3105 3106 3107 3107 3108 3107 3107 3107 3106 3105 3104 3102 3101 3099 3096 3094 3091 3088 3085 3082 3079 3075 3071 3067 3063 3062 3055 3049 3048 3049 3046 3047 3040 3043 3038 3036 3034 3030 3028 3030 3030 3031
3097 3098 3099 3100 3101 3101 3101 3100 3100 3099 3098 3097 3096 3094 3091 3088 3085 3082 3080 3076 3071 3068 3065 3060 3055 3050 3046 3043 3037 3032 3027 3034 3030 3029 3026 3025 3024 3020 3017 3015 3016 3012 3012
3090 3091 3092 3093 3094 3094 3094 3094 3093 3093 3092 3091 3089 3086 3083 3080 3077 3073 3069 3065 3060 3055 3051 3048 3044 3040 3034 3032 3028 3022 3013 3009 3006 3012 3012 3009 3006 3005 3001 2999 2997 2996 2995
3082 3084 3085 3086 3087 3087 3088 3088 3087 3086 3085 3084 3082 3079 3075 3072 3067 3063 3058 3054 3049 3045 3041 3036 3032 3028 3024 3020 3016 3012 3007 3000 2991 2983 2987 2988 2989 2986 2983 2982 2981 2981 2980
3074 3077 3078 3079 3080 3080 3081 3081 3080 3079 3078 3076 3074 3071 3068 3063 3058 3053 3048 3045 3041 3036 3032 3027 3023 3018 3014 3008 3002 2997 2993 2988 2983 2976 2966 2969 2966 2965 2964 2964 2962 2962 2963
3067 3069 3071 3071 3072 3073 3073 3073 3073 3072 3070 3068 3064 3061 3058 3055 3051 3047 3042 3037 3032 3027 3023 3017 3011 3007 3002 2995 2991 2986 2981 2975 2971 2964 2957 2955 2950 2949 2948 2946 2947 2946 2946